TimeCDT,TemperatureF,Dew PointF,Humidity,Sea Level PressureIn,VisibilityMPH,Wind Direction,Wind SpeedMPH,Gust SpeedMPH,PrecipitationIn,Events,Conditions,WindDirDegrees,DateUTC
12:52 AM,45.0,35.1,68,29.95,10.0,North,9.2,-,N/A,,Mostly Cloudy,350,2012-10-03 05:52:00
1:52 AM,44.1,35.1,71,29.94,10.0,North,6.9,-,N/A,,Scattered Clouds,360,2012-10-03 06:52:00
2:52 AM,44.1,34.0,68,29.96,10.0,North,3.5,-,N/A,,Mostly Cloudy,360,2012-10-03 07:52:00
3:52 AM,44.1,35.1,71,29.96,10.0,ENE,5.8,-,N/A,,Mostly Cloudy,60,2012-10-03 08:52:00
4:52 AM,43.0,36.0,76,30.01,10.0,NNW,12.7,-,0.00,Rain,Light Rain,340,2012-10-03 09:52:00
5:52 AM,41.0,39.0,93,30.00,10.0,North,12.7,-,0.01,Rain,Light Rain,10,2012-10-03 10:52:00
6:52 AM,41.0,39.9,96,29.98,10.0,NNE,17.3,-,0.08,Rain,Light Rain,30,2012-10-03 11:52:00
7:52 AM,41.0,39.0,93,30.04,10.0,North,12.7,-,0.06,Rain,Light Rain,10,2012-10-03 12:52:00
7:57 AM,39.2,39.2,100,30.01,10.0,North,15.0,-,0.00,Rain,Light Rain,10,2012-10-03 12:57:00
8:23 AM,39.2,37.4,93,30.02,9.0,North,16.1,23.0,N/A,Rain,Rain,10,2012-10-03 13:23:00
8:46 AM,39.2,37.4,93,30.00,8.0,NNE,15.0,-,0.07,Rain,Light Rain,20,2012-10-03 13:46:00
8:52 AM,39.0,37.9,96,30.04,8.0,NNE,15.0,-,0.07,Rain,Light Rain,20,2012-10-03 13:52:00
9:09 AM,39.2,37.4,93,30.02,10.0,North,11.5,-,0.01,Rain,Light Rain,10,2012-10-03 14:09:00
9:52 AM,39.9,37.9,93,30.09,10.0,NNE,6.9,-,0.04,Rain,Light Rain,30,2012-10-03 14:52:00
10:52 AM,41.0,39.0,93,30.12,7.0,North,12.7,-,0.06,Rain,Light Rain,360,2012-10-03 15:52:00
11:52 AM,41.0,41.0,100,30.13,6.0,North,15.0,-,0.06,Rain,Light Rain,10,2012-10-03 16:52:00
12:02 PM,41.0,39.2,93,30.09,7.0,North,16.1,-,0.00,Rain,Light Rain,360,2012-10-03 17:02:00
12:15 PM,41.0,39.2,93,30.10,7.0,North,15.0,-,0.01,Rain,Light Rain,10,2012-10-03 17:15:00
12:52 PM,41.0,39.0,93,30.17,8.0,North,15.0,-,0.05,Rain,Light Rain,10,2012-10-03 17:52:00
1:16 PM,39.2,37.4,93,30.15,5.0,North,19.6,26.5,0.02,Rain,Rain,10,2012-10-03 18:16:00
1:28 PM,39.2,37.4,93,30.15,6.0,North,18.4,-,0.04,Rain,Rain,360,2012-10-03 18:28:00
1:34 PM,39.2,37.4,93,30.15,6.0,North,17.3,-,0.05,Rain,Rain,360,2012-10-03 18:34:00
1:45 PM,39.2,37.4,93,30.15,5.0,North,18.4,27.6,0.07,Rain,Rain,10,2012-10-03 18:45:00
1:52 PM,39.9,37.9,93,30.20,5.0,North,18.4,-,0.07,Rain,Light Rain,360,2012-10-03 18:52:00
2:21 PM,39.2,37.4,93,30.15,7.0,North,17.3,29.9,N/A,Rain,Light Rain,10,2012-10-03 19:21:00
2:34 PM,39.2,37.4,93,30.16,7.0,North,19.6,26.5,0.03,Rain,Light Rain,10,2012-10-03 19:34:00
2:52 PM,39.9,37.9,93,30.22,8.0,North,16.1,25.3,0.04,Rain,Light Rain,10,2012-10-03 19:52:00
3:30 PM,39.2,37.4,93,30.19,7.0,North,16.1,24.2,0.02,Rain,Light Rain,10,2012-10-03 20:30:00
3:50 PM,39.2,39.2,100,30.20,7.0,North,15.0,24.2,0.02,Rain,Light Rain,10,2012-10-03 20:50:00
3:52 PM,39.9,39.0,97,30.25,7.0,North,16.1,23.0,0.02,Rain,Light Rain,10,2012-10-03 20:52:00
4:07 PM,39.2,37.4,93,30.20,10.0,North,18.4,-,0.01,Rain,Light Rain,10,2012-10-03 21:07:00
4:15 PM,39.2,37.4,93,30.21,10.0,North,13.8,23.0,0.01,Rain,Light Rain,10,2012-10-03 21:15:00
4:21 PM,39.2,37.4,93,30.21,9.0,NNE,18.4,24.2,0.01,Rain,Light Rain,20,2012-10-03 21:21:00
4:33 PM,39.2,37.4,93,30.22,10.0,North,17.3,-,0.02,Rain,Light Rain,10,2012-10-03 21:33:00
4:43 PM,39.2,37.4,93,30.22,10.0,North,17.3,21.9,0.02,Rain,Light Rain,10,2012-10-03 21:43:00
4:52 PM,39.9,37.9,93,30.27,10.0,North,17.3,25.3,0.02,Rain,Light Rain,10,2012-10-03 21:52:00
5:03 PM,39.2,37.4,93,30.23,10.0,North,16.1,-,0.01,Rain,Light Rain,360,2012-10-03 22:03:00
5:52 PM,39.0,37.0,93,30.32,10.0,North,16.1,23.0,0.03,Rain,Light Rain,10,2012-10-03 22:52:00
6:45 PM,37.4,37.4,100,30.28,8.0,North,15.0,-,0.03,Rain,Light Rain,10,2012-10-03 23:45:00
6:52 PM,37.9,37.0,97,30.34,8.0,North,15.0,-,0.03,Rain,Light Rain,10,2012-10-03 23:52:00
6:58 PM,37.4,37.4,100,30.29,9.0,North,17.3,24.2,0.00,Rain,Light Rain,10,2012-10-03 23:58:00
7:33 PM,37.4,37.4,100,30.31,10.0,North,13.8,21.9,0.01,Rain,Light Rain,360,2012-10-04 00:33:00
7:52 PM,37.9,37.0,97,30.37,10.0,North,17.3,-,0.02,Rain,Light Rain,10,2012-10-04 00:52:00
8:31 PM,37.4,37.4,100,30.33,10.0,North,13.8,-,0.01,Rain,Light Rain,360,2012-10-04 01:31:00
8:44 PM,37.4,35.6,93,30.33,10.0,North,17.3,-,0.01,Rain,Light Rain,10,2012-10-04 01:44:00
8:52 PM,37.0,36.0,96,30.40,10.0,North,13.8,-,0.01,Rain,Light Rain,360,2012-10-04 01:52:00
8:57 PM,37.4,35.6,93,30.34,10.0,North,12.7,-,0.01,Rain,Light Rain,360,2012-10-04 01:57:00
9:05 PM,37.4,35.6,93,30.34,10.0,North,18.4,23.0,0.01,Rain,Light Rain,360,2012-10-04 02:05:00
9:37 PM,37.4,35.6,93,30.35,10.0,North,13.8,-,0.02,Rain,Light Rain,360,2012-10-04 02:37:00
9:52 PM,37.0,36.0,96,30.42,10.0,North,13.8,-,0.02,Rain,Light Rain,360,2012-10-04 02:52:00
10:22 PM,37.4,35.6,93,30.36,10.0,North,15.0,-,0.01,Rain,Light Rain,360,2012-10-04 03:22:00
10:34 PM,37.4,35.6,93,30.36,10.0,North,12.7,-,0.01,Rain,Light Rain,360,2012-10-04 03:34:00
10:41 PM,37.4,35.6,93,30.36,10.0,North,11.5,-,0.01,Rain,Light Rain,350,2012-10-04 03:41:00
10:52 PM,37.0,36.0,96,30.43,10.0,North,15.0,-,0.01,Rain,Light Rain,360,2012-10-04 03:52:00
11:45 PM,37.4,35.6,93,30.38,10.0,North,11.5,-,0.00,Rain,Light Rain,360,2012-10-04 04:45:00
11:50 PM,37.4,35.6,93,30.38,10.0,North,10.4,-,0.00,,Overcast,360,2012-10-04 04:50:00
11:52 PM,37.0,36.0,96,30.44,10.0,North,10.4,-,0.00,,Overcast,360,2012-10-04 04:52:00